Regional Weather Roundup
Issued by NWS

Home | Current Version | Previous Version | Text Only | Print | Product List | Glossary On
Versions: 1 2 3 4 5 6 7 8 9 10 11 12 13 14 15 16 17 18 19 20 21 22 23 24 25 26 27 28 29 30 31 32 33 34 35 36 37 38 39 40 41 42 43 44 45 46 47 48 49 50
539
ASUS43 KMPX 071601
RWRMN
WEATHER ROUNDUP FOR MINNESOTA
NATIONAL WEATHER SERVICE TWIN CITIES/CHANHASSEN MN
1000 AM CST SUN FEB 07 2016


NOTE: "FAIR" INDICATES FEW OR NO CLOUDS BELOW 12,000 FEET WITH NO
SIGNIFICANT WEATHER AND/OR OBSTRUCTIONS TO VISIBILITY. N/A MEANS
CURRENT SKY AND/OR WEATHER CONDITIONS ARE NOT AVAILABLE.

MNZ060>063-068>070-071700-
   Twin Cities Metro

CITY           SKY/WX    TMP DP  RH WIND       PRES   REMARKS
TWIN CITIES    MOSUNNY   39  26  59 W20G28    29.62F
ST PAUL        MOSUNNY   38  27  64 W20       29.63F
CRYSTAL        MOSUNNY   40  26  57 W21G31    29.61S
BLAINE         PTSUNNY   39  28  65 W20       29.60F
LAKEVILLE      SUNNY     37  27  65 W20G28    29.64R
EDEN PRAIRIE   SUNNY     38  25  59 W17G28    29.63F
SOUTH ST PAUL  MOSUNNY   39  26  59 W14G23    29.62S
LAKE ELMO      CLOUDY    37  28  70 W14G22    29.62S
$$
MNZ001>005-007-008-013>017-022>024-027-028-071700-
   Northwest Minnesota

CITY           SKY/WX    TMP DP  RH WIND       PRES   REMARKS
BEMIDJI        LGT SNOW  32  31  96 W17G23    29.47R VSB 1   WCI  21
HALLOCK        SNOW      25  21  86 NW35G40   29.58R VSB 1/4 WCI   7
ROSEAU         LGT SNOW  27  23  86 NW14      29.48R VSB 3/4 WCI  15
WARROAD        LGT SNOW  28  25  86 W14G20    29.46R WCI  17
THIEF RVR FALL CLOUDY    30  25  80 NW22      29.54R WCI  17
CROOKSTON      LGT SNOW  32  30  93 N18       29.59R WCI  20
FOSSTON        LGT SNOW  30  28  93 W16G23    29.53R WCI  19
DETROIT LAKES  LGT SNOW  32  32 100 W18G31    29.57R WCI  20
MOORHEAD       LGT RAIN  34  30  86 W23G31    29.61S WCI  22
PARK RAPIDS    LGT SNOW  33  29  85 W22G28    29.51R FOG     WCI  21
MAHNOMEN       CLOUDY    32  30  91 W21       29.54R WCI  20
$$
MNZ006-009>011-018-025>026-071700-
   North Central Minnesota

CITY           SKY/WX    TMP DP  RH WIND       PRES   REMARKS
BAUDETTE       LGT SNOW  29  25  85 NW14      29.42R FOG     WCI  18
FLAG ISLAND    LGT SNOW  27  25  93 NW20G25   29.42R WCI  13
INTL FALLS     CLOUDY    33  30  88 W7        29.39R WCI  27
WASKISH        LGT SNOW  30  28  93 W14G20    29.44R WCI  20
LONGVILLE      LGT SNOW  34  30  86 W12       29.48R WCI  25
GRAND RAPIDS   CLOUDY    34  30  86 W12       29.45S WCI  25
CRANE LAKE     CLOUDY    32  30  93 S1        29.41S
ORR            CLOUDY    32  30  93 CALM      29.38R
COOK           CLOUDY    34  30  86 W8        29.40S WCI  27
WALKER         LGT SNOW  32  30  92 W15G22    29.47S WCI  22
$$
MNZ012-019>021-037-071700-
   Northeast Minnesota

CITY           SKY/WX    TMP DP  RH WIND       PRES   REMARKS
DULUTH         FLURRIES  34  31  88 W15       29.43S WCI  24
ELY            LGT SNOW  32  30  93 CALM      29.39S
HIBBING        FLURRIES  32  30  92 W5        29.42R WCI  27
EVELETH        MIX PCPN  32  32 100 W8        29.42R WCI  25
DULUTH HARBOR  CLOUDY    36  34  93 SW10      29.47S
TWO HARBORS    LGT SNOW  36  30  80 SW5       29.41S VSB 3/4
SILVER BAY     LGT SNOW  34  32  93 S5        29.41S WCI  30
GRAND MARAIS     N/A     34  31  88 S10       29.48S WCI  26
G MARAIS ARPRT MIX PCPN  28  25  86 SE3       29.43S VSB 1/4
$$
MNZ029>031-032-039>041-046>048-054>057-064-071700-
   West Central Minnesota

CITY           SKY/WX    TMP DP  RH WIND       PRES   REMARKS
FERGUS FALLS   CLOUDY    36  28  75 W20G26    29.64S
WHEATON        CLOUDY    37  28  70 W16G23    29.69S
MORRIS         PTSUNNY   36  27  69 W22G29    29.65S
ALEXANDRIA     CLOUDY    35  26  69 W21G33    29.61S WCI  24
ELBOW LAKE     CLOUDY    34  28  79 NW20G26   29.64S HAZE    WCI  22
WADENA         LGT RAIN  34  28  80 W18G25    29.55R WCI  23
GLENWOOD       PTSUNNY   36  27  69 W23G32    29.63R
APPLETON       PTSUNNY   37  27  65 W21       29.69S
BENSON         MOSUNNY   37  27  65 NW18      29.67R
ORTONVILLE     CLOUDY    37  25  60 W18G29    29.70S
MADISON        SUNNY     37  27  65 W22       29.71F
WILLMAR        FAIR      37  28  70 W24       29.67F
$$
MNZ033>034-036-042>043-049>051-058-059-071700-
   Central Minnesota

CITY           SKY/WX    TMP DP  RH WIND       PRES   REMARKS
ST CLOUD       SUNNY     37  26  64 W22G36    29.58S
SAUK CENTRE    FAIR      35  26  71 W22G31    29.60S WCI  23
PAYNESVILLE    SUNNY     37  26  66 W24G33    29.63S
AITKIN         FLURRIES  37  28  70 W10G18    29.48S
PINE RIVER     CLOUDY    34  30  86 W15G22    29.54S WCI  24
BRAINERD       CLOUDY    34  28  79 W18G26    29.52S WCI  23
STAPLES        CLOUDY    34  27  75 W21G30    29.55R WCI  22
LONG PRAIRIE   FAIR      34  27  75 W22G31    29.58F WCI  22
LITTLE FALLS   CLOUDY    36  27  69 W16G22    29.57S
LITCHFIELD     MOSUNNY   37  28  70 W14G26    29.65S
BUFFALO        SUNNY     38  26  60 W21G30    29.63S
MAPLE LAKE     SUNNY     39  28  64 W21G30    29.62S
$$
MNZ037-044-045-052-053-071700-
   East Central Minnesota

CITY           SKY/WX    TMP DP  RH WIND       PRES   REMARKS
PRINCETON      CLOUDY    39  28  65 W14G22    29.58R
MORA           CLOUDY    36  28  75 W13G22    29.55S
CAMBRIDGE      CLOUDY    39  28  65 W12G21    29.55S
RUSH CITY      CLOUDY    37  29  73 W13G20    29.56R
MOOSE LAKE     CLOUDY    36  32  87 W9        29.47S
HINCKLEY       CLOUDY    36  32  87 W15G32    29.52S
CLOQUET        CLOUDY    34  32  93 W12       29.45R WCI  25
MCGREGOR       CLOUDY    36  32  87 W10G17    29.48S
$$
MNZ071>073-080-081-089-090-097-098-071700-
   Southwest Minnesota

CITY           SKY/WX    TMP DP  RH WIND       PRES   REMARKS
MONTEVIDEO     SUNNY     41  27  56 NW16G25   29.71S
GRANITE FALLS  SUNNY     38  30  73 W23G31    29.73S
CANBY          MOSUNNY   40  30  68 NW22G28   29.75S
MARSHALL       SUNNY     37  26  64 W26G38    29.72F
REDWOOD FALLS  SUNNY     38  27  64 W23G32    29.71S
OLIVIA         SUNNY     36  28  75 W22G30    29.68S
PIPESTONE      SUNNY     37  21  52 NW21      29.78S
WINDOM         MOSUNNY   36  28  75 W22       29.75F
WORTHINGTON    CLOUDY    36  25  64 W23       29.80S
JACKSON        MOSUNNY   36  27  69 W21G29    29.77S
TRACY          SUNNY     37  28  69 W14G24    29.75S
SLAYTON        PTSUNNY   34  28  80 W24       29.76F WCI  21
$$
MNZ065>067-074>077-082>085-091>093-071700-
   South Central Minnesota

CITY           SKY/WX    TMP DP  RH WIND       PRES   REMARKS
MANKATO        MOSUNNY   37  25  60 W18G26    29.71S
NEW ULM        SUNNY     36  27  69 W20       29.71F
ST JAMES       PTSUNNY   37  28  70 W21       29.75S
FAIRMONT       CLOUDY    37  25  60 W18       29.75S
GLENCOE        MOSUNNY   37  29  73 W17G25    29.66S
FARIBAULT      SUNNY     39  27  60 W17G25    29.68S
OWATONNA       SUNNY     36  25  64 W22G30    29.70R
WASECA         MOSUNNY   32  27  80 W16       29.73R WCI  21
ALBERT LEA     MOSUNNY   36  27  69 W13G20    29.73R
$$
MNZ078>079-086>088-094>096-071700-
   Southeast Minnesota

CITY           SKY/WX    TMP DP  RH WIND       PRES   REMARKS
ROCHESTER      SUNNY     34  25  69 W20       29.68S WCI  23
RED WING       SUNNY     39  27  60 W16G22    29.63S
STANTON        SUNNY     38  26  62 W16G26    29.65S
DODGE CENTER   SUNNY     36  25  64 W17       29.68R
WINONA         MOSUNNY   41  28  60 W8G17     29.68S
AUSTIN         SUNNY     36  27  69 W17G25    29.72R
PRESTON        SUNNY     33  25  71 W13G18    29.70S WCI  24
$$
ABBREVIATIONS USED IN REMARKS
   TC - TEMPERATURES IN CELSIUS
  WCI - WIND CHILL INDEX
   HX - HEAT INDEX
  VSB - VISIBILITY
$$




USA.gov is the U.S. government's official web portal to all federal, state and local government web resources and services.